This is the latest recevied weather packets stored in our database for station/object AE5TC. If no packets are shown the sender has not sent any weather packets the latest 10 day(s).
| Time | Temp. | Humidity | Pressure | Rain* | Wind** | Luminosity | Snow |
|---|---|---|---|---|---|---|---|
| 1777559961 | 26.67° C | 88% | 1011.3 hPa | 0 mm | - | 409 W/m² | - |
| 1777559655 | 26.67° C | 87% | 1011.5 hPa | 0 mm | - | 376 W/m² | - |
| 1777559353 | 27.22° C | 88% | 1011.2 hPa | 0 mm | - | 347 W/m² | - |
| 1777559049 | 26.67° C | 89% | 1011 hPa | 0 mm | - | 585 W/m² | - |
| 1777558744 | 26.11° C | 91% | 1011.2 hPa | 0 mm | - | 385 W/m² | - |
| 1777558440 | 26.11° C | 92% | 1011 hPa | 0 mm | - | 293 W/m² | - |
| 1777558136 | 26.67° C | 90% | 1010.9 hPa | 0 mm | - | 273 W/m² | - |
| 1777557833 | 26.67° C | 91% | 1010.9 hPa | 0 mm | - | 274 W/m² | - |
| 1777557530 | 26.11° C | 92% | 1011.1 hPa | 0 mm | - | 236 W/m² | - |
| 1777557226 | 25.56° C | 94% | 1011.2 hPa | 0 mm | - | 251 W/m² | - |
| 1777556917 | 25° C | 94% | 1010.9 hPa | 0 mm | - | 144 W/m² | - |
| 1777556612 | 25° C | 94% | 1010.8 hPa | 0 mm | - | 150 W/m² | - |
| 1777556307 | 25° C | 95% | 1010.9 hPa | 0 mm | - | 141 W/m² | - |
| 1777556003 | 25° C | 96% | 1010.8 hPa | 0 mm | - | 129 W/m² | - |
| 1777555699 | 25° C | 96% | 1010.7 hPa | 0 mm | - | 113 W/m² | - |
| 1777555395 | 24.44° C | 97% | 1010.7 hPa | 0 mm | - | 117 W/m² | - |
| 1777555091 | 24.44° C | 97% | 1010.7 hPa | 0 mm | - | 102 W/m² | - |
| 1777554789 | 24.44° C | 97% | 1010.6 hPa | 0 mm | - | 58 W/m² | - |
| 1777554486 | 24.44° C | 97% | 1010.6 hPa | 0 mm | - | 57 W/m² | - |
| 1777554183 | 24.44° C | 97% | 1010.4 hPa | 0 mm | - | 87 W/m² | - |
| 1777553880 | 24.44° C | 98% | 1010.7 hPa | 0 mm | - | 97 W/m² | - |
| 1777553576 | 23.89° C | 98% | 1010.6 hPa | 0 mm | - | 90 W/m² | - |
| 1777553270 | 23.89° C | 99% | 1010.5 hPa | 0 mm | - | 57 W/m² | - |
| 1777552968 | 23.89° C | 99% | 1010.4 hPa | 0 mm | - | 49 W/m² | - |
| 1777552662 | 23.89° C | 99% | 1010.5 hPa | 0 mm | - | 41 W/m² | - |
* Rain latest hour (hover to see other rain measurements)
** Current wind speed in m/s (hover to see current wind gust speed)